Location: Boiro
(42.6475°N, 8.8834°W)
Time: 12:56:39
(UTC+02:00)

deb Agena D - Pass Details

Date: 04 July 2022
Orbit: 997 x 1025 km, 100.1° (Epoch: 16 August)

Event Time Altitude Azimuth Distance (km) Brightness Sun altitude
Exits shadow 02:36:44 31° 236° (SW) 1,720 ? -24.5°
Maximum altitude 02:38:13 34° 263° (W) 1,613 ? -24.5°
Drops below altitude 10° 02:43:57 10° 327° (NNW) 2,826 ? -24.5°
Sets 02:46:43 0° 336° (NNW) 3,782 ? -24.4°
